World > North America > United States > South Carolina > Cheraw   Town of Cheraw, South Carolina

Cheraw, SC Hourly Weather Updates

Feedback E-mail the Weather

Quick WX

Cheraw, SC Weather Maps

°F °C°F °C
Cheraw Weather Map
UTC Time: 2/27/2024, 01:20
Your Time:

Cheraw, SC Regional Weather

Expires:202402270200;;760663
ASUS42 KCAE 270110
RWRCAE
REGIONAL WEATHER ROUNDUP
NATIONAL WEATHER SERVICE COLUMBIA SC
800 PM EST MON FEB 26 2024

NOTE: "FAIR" INDICATES FEW OR NO CLOUDS BELOW 12,000 FEET WITH NO
SIGNIFICANT WEATHER AND/OR OBSTRUCTIONS TO VISIBILITY.

NOT ALL STATIONS ARE QUALITY CONTROLLED BY THE NATIONAL 
WEATHER SERVICE. USE DATA WITH CAUTION...ESPECIALLY 
DEWPOINT OBSERVATIONS.


SCZ001>059-115-116-135>137-GAZ040-063>065-077-270200-
...UPSTATE SOUTH CAROLINA...
  
CITY           SKY/WX    TMP DP  RH WIND       PRES   REMARKS
ANDERSON       PTCLDY    61  32  33 S7        30.02R                  
LIBERTY        PTCLDY    61  32  33 S7        30.02R                  
SPARTANBURG    CLEAR     63  30  29 CALM      30.02R                  
CLEMSON        PTCLDY    63  32  31 CALM      30.02R                  
GREENVILLE     CLEAR     62  32  32 S8        30.03R                  
GREER          CLEAR     61  30  31 S8        30.03R                  
ROCK HILL      CLEAR     60  34  37 S9        30.04R                  
CHESTER        CLEAR     61  32  33 S6        30.05R                  
LAURENS        CLEAR     63  32  31 S8        30.04R                  


...CENTRAL SOUTH CAROLINA...
  
CITY           SKY/WX    TMP DP  RH WIND       PRES   REMARKS
COLUMBIA APT   CLEAR     60  36  40 S7        30.07R                  
COLUMBIA OWENS CLEAR     61  35  37 SE7       30.08R                  
MCENTIRE ANGB  CLEAR     61  37  40 SE8       30.06R                  
ORANGEBURG     PTCLDY    61  36  39 S9        30.10R                  
SUMTER SHAW    CLEAR     61  37  41 S12       30.07R                  
NEWBERRY       CLEAR     61  30  31 S5        30.08R                  
AIKEN          CLEAR     59  34  39 S6        30.08R                  
BARNWELL       CLEAR     59  41  51 SE8       30.09S                  
MANNING        CLEAR     55  36  47 S7        30.11S                  
CAMDEN         PTCLDY    59  36  41 CALM      30.08R                  
LANCASTER      PTCLDY    61  32  33 S7G13     30.05S                  
WINNSBORO      CLEAR     61  34  36 S7        30.06R                  


...EASTERN AND COASTAL SOUTH CAROLINA...
  
CITY           SKY/WX    TMP DP  RH WIND       PRES   REMARKS
MYRTLE BEACH   CLEAR     57  42  57 SW9       30.14S                  
N MYRTLE BCH   CLEAR     55  46  71 SW9       30.13S                  
CONWAY         CLEAR     52  37  58 S5        30.14S                  
MARION         CLEAR     57  36  44 S12       30.12R                  
HARTSVILLE     CLOUDY    59  36  41 S8        30.08R                  
FLORENCE       CLEAR     59  39  47 S8        30.10R                  
DARLINGTON     CLEAR     62  38  40 S12       30.09R                  
CHARLESTON APT PTCLDY    52  38  58 S7        30.14R                  
MOUNT PLEASANT CLEAR     54  48  82 CALM      30.14S                  
WALTERBORO     CLEAR     55  37  50 S7        30.14R                  
BEAUFORT       CLEAR     57  48  72 S7        30.14R                  
HILTON HEAD    CLEAR     55  52  88 S3        30.15S                  


...EASTERN GEORGIA...
  
CITY           SKY/WX    TMP DP  RH WIND       PRES   REMARKS
AUGUSTA BUSH F CLEAR     59  35  40 S8        30.06S                  
AUGUSTA DANIEL PTCLDY    63  33  32 S7        30.07S                  
THOMSON        PTCLDY    63  33  33 S6        30.05S                  
WASHINGTON     PTCLDY    62  33  34 S7        30.04S                  
CLAXTON        CLEAR     62  38  40 S5        30.11R                  
SYLVANIA       CLEAR     59  40  50 S6        30.11S                  
STATESBORO     CLEAR     60  40  46 S7        30.10S                  
SAVANNAH       CLEAR     56  40  55 S7        30.13S                  


...SOUTHERN NORTH CAROLINA...
  
CITY           SKY/WX    TMP DP  RH WIND       PRES   REMARKS
CHARLOTTE      PTCLDY    63  33  32 S8        30.03R                  
MONROE         CLEAR     62  32  32 S7        30.03R                  
WADESBORO      CLEAR     61  33  33 S7        30.05S                  
ROCKINGHAM     CLEAR     61  33  34 S7        30.06R                  
RUTHERFORDTON  CLEAR     63  32  31 S10       30.02R                  
ASHEVILLE      CLEAR     57  32  38 SE3       30.04R                  

$$
  

SKY/WX - Weather  TMP - Temperature  DP - Dew Point  RH - Humidity
WIND - Wind Direction/Speed PRES - Barometric Pressure VSB - Visibility
WCI - Wind Chill Index E13G22 Wind - East Wind 13 mph/Gusts of 22 mph

Trending Headlines

Trending Entertainment Headlines

Cheraw Radar Loop

Use the map search tool if you want to place a location marker on the radar map...

Cheraw Quick Facts

National Two Day Weather Forecast


E-mail the Cheraw Weather Forecast

Voice your opinion or tell us about page issues...